Zurück zum Katalog

STARLINK-5368

AktivKommunikationVLEO
NORAD 54840·PAYLOAD·🇺🇸 United States

Gestartet Dec 28, 2022 von Cape Canaveral Space Force Station

Loading…

Nächste Überflüge (nächste 24 Stunden)

TLE

AktuellSource: CelesTrak SupGP

Epoche: Sep 14, 2026, 13:32 UTC

1 54840C 22177W   26257.56437500  .00020361  00000+0  73768-3 0  2574
2 54840  43.0014 146.1043 0001269 260.0749 251.5422 15.27558664    11

Verfolge STARLINK-5368 in Echtzeit mit AllMySat

Download on the App Store